Location: Étouvelles
(49.5207°N, 3.5808°E)
Time: 09:41:13
(UTC+00:00)

Cosmos 1633 - Pass Details

Date: 03 February 2023
Orbit: 424 x 432 km, 82.5° (Epoch: 24 March)

Event Time Altitude Azimuth Distance (km) Brightness Sun altitude
Rises 17:31:20 0° 151° (SSE) 2,380 5.9 -8.0°
Reaches altitude 10° 17:33:50 10° 131° (SE) 1,518 4.8 -8.4°
Maximum altitude 17:36:04 17° 88° (E) 1,155 3.9 -8.7°
Drops below altitude 10° 17:38:19 10° 45° (NE) 1,527 4.6 -9.1°
Enters shadow 17:38:35 - 42° (NE) 1,603 4.7 -9.1°
